845 
ASUS46 KSEW 260410
RWRWA 

WASHINGTON REGIONAL WEATHER ROUNDUP
NATIONAL WEATHER SERVICE SEATTLE WA
900 PM PDT SAT APR 25 2015

NOTE:"FAIR" INDICATES FEW OR NO CLOUDS BELOW 12,000 FEET WITH NO 
SIGNIFICANT WEATHER AND/OR OBSTRUCTIONS TO VISIBILITY.

WAZ505-507>509-260500-
SEATTLE, TACOMA, EVERETT, AND VICINITY
  
CITY           SKY/WX    TMP DP  RH WIND       PRES   REMARKS
EVERETT        CLEAR     47  36  65 CALM      30.07R                  
BOEING FIELD   MOCLDY    53  37  54 CALM      30.07R                  
RENTON         CLEAR     50  39  66 CALM      30.07R                  
SEATAC AIRPORT PTCLDY    49  37  63 SW3       30.07R                  
JBLM-MCCHORD   CLEAR     44  43  97 SE3       30.07R                  
PUYALLUP       FAIR      43  39  87 CALM      30.07R                  
BREMERTON      PTCLDY    45  43  93 CALM      30.09S                  
JBLM-FT LEWIS  CLEAR     45  42  88 S3        30.06R                  
TACOMA NARROWS CLEAR     46  39  76 CALM      30.07R                  
$$
 
WAZ001-503-506-510-514-515-260500-
NORTH INTERIOR
  
CITY           SKY/WX    TMP DP  RH WIND       PRES   REMARKS
BELLINGHAM     CLEAR     43  38  82 CALM      30.05R                  
FRIDAY HARBOR  CLEAR     41  37  86 CALM      30.06R                  
EASTSOUND      CLEAR     46  41  81 MISG      30.03S                  
PORT ANGELES   CLEAR     45  40  82 W5        30.06S                  
NAS WHIDBEY    PTCLDY    47  41  80 CALM      30.07R                  
ARLINGTON      CLEAR     46  36  66 CALM      30.08R                  
BURLINGTON     CLEAR     45  41  87 CALM      30.07R                  
$$
 
WAZ020-022-039-040-504-511-512-260500-
SOUTHWEST INTERIOR
  
CITY           SKY/WX    TMP DP  RH WIND       PRES   REMARKS
SHELTON        CLOUDY    47  46  97 CALM      30.05R                  
OLYMPIA        CLEAR     44  42  93 CALM      30.07R                  
CHEHALIS       FAIR      45  43  93 W5        30.07R                  
KELSO          MOCLDY    52  36  54 W7        30.10R                  
VANCOUVER      PTCLDY    55  26  32 N7        30.05R                  
SCAPPOOSE, OR  MOCLDY    51  32  48 N9        30.05R                  
PORTLAND, OR   PTCLDY    55  32  41 N8        30.05R                  
$$
 
WAZ021-516-517-260500-
WASHINGTON COAST
  
CITY           SKY/WX    TMP DP  RH WIND       PRES   REMARKS
FORKS          CLEAR     44  40  85 CALM      30.06S                  
HOQUIAM        CLEAR     48  40  73 NW6       30.07R                  
ASTORIA, OR    CLEAR     46  37  71 W5        30.07R                  
$$
 
WAZ019-023-024-040-518-519-260500-
CASCADE MOUNTAINS AND COLUMBIA GORGE
  
CITY           SKY/WX    TMP DP  RH WIND       PRES   REMARKS
TROUTDALE, OR  CLEAR     53  38  56 VRB3      30.04R                  
THE DALLES, OR CLEAR     52  30  43 W7        30.00R                  
$$

WAZ026-027-041>044-520-521-260500-
EAST SLOPES
  
CITY           SKY/WX    TMP DP  RH WIND       PRES   REMARKS
OMAK           MOCLDY    44  32  62 NW8       29.96R                  
WENATCHEE      CLEAR     50  24  36 W13       29.96R                  
ELLENSBURG     PTCLDY    43  30  60 NW12      29.97R                  
YAKIMA         PTCLDY    52  29  41 NW12      29.99R                  
$$

WAZ028-034-035-260500-
COLUMBIA BASIN
  
CITY           SKY/WX    TMP DP  RH WIND       PRES   REMARKS
EPHRATA        PTCLDY    47  29  49 NW9       29.94R                  
MOSES LAKE     PTCLDY    45  28  51 N7        29.95R                  
PASCO          PTCLDY    51  33  50 NW10      29.98R                  
HERMISTON, OR  CLOUDY    52  29  41 W7        29.97R                  
$$

WAZ036>038-260500-
NORTHEAST WASHINGTON
  
CITY           SKY/WX    TMP DP  RH WIND       PRES   REMARKS
SPOKANE GEIGER MOCLDY    43  36  76 NE6       29.94R                  
SPOKANE FELTS  CLOUDY    43  38  82 CALM      29.96R                  
FAIRCHILD AFB  MOCLDY    40  36  85 NE9       29.93R                  
COEURDALENE,ID CLOUDY    41  37  87 W3        29.98R                  
DEER PARK      CLOUDY    42  38  85 NE6       29.94S                  
$$

WAZ029>033-260500-
SOUTHEAST WASHINGTON
  
CITY           SKY/WX    TMP DP  RH WIND       PRES   REMARKS
PULLMAN        MOCLDY    43  34  70 CALM      29.95R                  
LEWISTON, ID   CLOUDY    48  35  60 SE7       29.95R                  
WALLA WALLA    CLOUDY    51  31  46 N12G20    29.96R                  
PENDLETON, OR  MOCLDY    47  28  47 NE10      29.95R                  
$$